Погода в Могутове

Россия / Оренбургская область     53°09′11″N   52°09′10″E
темп.,
°C
ветер,
м/с
пор.,
м/с
влажн.,
%
обл.,
%
осадки,
мм/ч
давл.,
гПа
погр.,
м
24 января, пн
пн2423:00−12вюв3891100 0.0 1035157
02:00−12юв3790100 0.0 1035170
05:00−13вюв2692100 0.0 1036131
08:00−14в2594100 0.0 103685
11:00−12вюв3790100 0.0 1037169
14:00−11юв3786100 0.0 1036210
17:00−12в2391100 0.0 103762
20:00−15вюв2492100 0.0 103744
25 января, вт
вт2523:00−17вюв2492100 0.0 103637
02:00−17в2291100 0.0 103623
05:00−19вюв229379 0.0 10359
08:00−20вюв2294100 0.0 103411
11:00−19юв229463 0.0 103428
14:00−11ююв258941 0.0 1032191
17:00−13юв239590 0.0 103147
20:00−17юв2499100 0.0 103041
26 января, ср
ср2623:00−16юв3796100 0.0 1029104
02:00−17юв2699100 0.0 102894
05:00−15юв3998100 0.0 1026132
08:00−14юв31097100 0.1 1024174
11:00−10юв4994100 0.1 1023229
14:00−7ююв4995100 0.8 1021383
17:00−6ю4896100 1.8 1020448
20:00−6ю379689 0.6 1020231
27 января, чт
чт2723:00−6ююз4995100 0.9 1021341
02:00−8ююз3896100 0.2 1022216
05:00−11ю2498100 0.3 102374
08:00−16ю2210093 0.0 102417
11:00−15ю22100100 0.1 102438
14:00−8ю239686 0.0 1024156
17:00−10вюв119995 0.1 102310
20:00−17в1110093 0.0 102310
28 января, пт
пт2823:00−16всв11100100 0.0 102311
02:00−13св1198100 0.0 102215
05:00−9св2496100 0.3 1020107
08:00−8св2596100 0.4 1019130
11:00−8всв259692 0.4 1019123
14:00−5в358990 0.0 1018270
17:00−6в3692100 0.0 1017247
20:00−11в2397100 0.0 101741